Clarksburg, WV

1:28 AM EDT on October 24, 2019 (GMT -0400)
Benedum

Weather History for KCKB - August, 2019

Change the Weather History Date:

Friday, August 9, 2019

  Actual Average Record
Temperature  
Mean Temperature 72 °F -  
Max Temperature 82 °F 82 °F 98 °F (1931)
Min Temperature 61 °F 61 °F 48 °F (1989)
Cooling Degree Days 8    
Growing Degree Days 22 (Base 50)    
Moisture  
Dew Point 62 °F    
Average Humidity 73    
Maximum Humidity 90    
Minimum Humidity 41    
Precipitation  
Precipitation 0.17 in - - ()
Sea Level Pressure  
Sea Level Pressure 29.89 in    
Wind  
Wind Speed 6 mph ()    
Max Wind Speed 16 mph    
Max Gust Speed -    
Visibility 9.8 miles    
Events Rain    
Averages and records for this station are not official NWS values.
T = Trace of Precipitation, MM = Missing Value Source: Averaged Metar Reports

Daily Weather History Graph

Daily Weather History Graph

Search for Another Location

Airport or City:

Astronomy

Aug. 09, 2019 Rise Set
Actual Time 6:28 AM EDT 8:24 PM EDT
Civil Twilight 5:58 AM EDT 8:53 PM EDT
Nautical Twilight 5:23 AM EDT 9:28 PM EDT
Astronomical Twilight 4:44 AM EDT 10:06 PM EDT
Moon 4:03 PM EDT (8/9) 1:24 AM EDT (8/9)
Length of Visible Light 14h 54m
Length of Day
13h 56m
Waxing Gibbous, 70% of the Moon is Illuminated
Aug 9
Waxing Gibbous
Aug 15
Full
Aug 23
Last Quarter
Aug 30
New
Sep 5
First Quarter

Hourly Weather History & Observations

Time (EDT) Temp. Heat Index Dew Point Humidity Pressure Visibility Wind Dir Wind Speed Gust Speed Precip Events Conditions
12:53 AM 68.0 °F - 63.0 °F 84% 29.86 in 10.0 mi South 4.6 mph - N/A   Scattered Clouds
1:27 AM 68.0 °F - 63.0 °F 84% 29.90 in 2.5 mi SSW 16.1 mph - 0.13 in Rain Heavy Rain
1:43 AM 68.0 °F - 64.0 °F 87% 29.89 in 10.0 mi SSW 10.4 mph - 0.17 in Rain Light Rain
1:53 AM 68.0 °F - 64.0 °F 87% 29.86 in 10.0 mi SSW 6.9 mph - 0.17 in   Overcast
2:13 AM 68.0 °F - 64.0 °F 87% 29.90 in 10.0 mi Variable 4.6 mph - N/A   Overcast
2:26 AM 68.0 °F - 64.0 °F 87% 29.89 in 10.0 mi South 4.6 mph - 0.00 in Rain Light Rain
2:35 AM 68.0 °F - 63.0 °F 84% 29.89 in 10.0 mi South 4.6 mph - 0.00 in   Overcast
2:53 AM 68.0 °F - 63.0 °F 84% 29.84 in 10.0 mi SSW 3.5 mph - 0.00 in   Overcast
3:53 AM 68.0 °F - 63.0 °F 84% 29.84 in 10.0 mi South 4.6 mph - N/A   Overcast
4:51 AM 66.2 °F - 62.6 °F 88% 29.88 in 10.0 mi SSE 3.5 mph - N/A   Overcast
4:53 AM 66.9 °F - 63.0 °F 87% 29.83 in 10.0 mi Calm Calm - N/A   Overcast
5:53 AM 66.9 °F - 63.0 °F 87% 29.86 in 10.0 mi Calm Calm - N/A   Overcast
6:04 AM 66.9 °F - 64.0 °F 90% 29.90 in 10.0 mi Calm Calm - N/A   Overcast
6:18 AM 68.0 °F - 64.0 °F 87% 29.90 in 10.0 mi Calm Calm - N/A   Overcast
6:53 AM 68.0 °F - 64.0 °F 87% 29.87 in 10.0 mi South 4.6 mph - N/A   Overcast
7:53 AM 69.1 °F - 64.0 °F 84% 29.88 in 10.0 mi SW 5.8 mph - N/A   Overcast
8:51 AM 69.8 °F - 64.4 °F 83% 29.92 in 10.0 mi SW 6.9 mph - N/A   Overcast
9:44 AM 71.1 °F - 64.0 °F 78% 29.93 in 10.0 mi WNW 5.8 mph - N/A   Overcast
9:53 AM 71.1 °F - 64.9 °F 81% 29.88 in 10.0 mi West 5.8 mph - N/A   Overcast
10:00 AM 71.1 °F - 64.9 °F 81% 29.92 in 10.0 mi West 4.6 mph - N/A   Overcast
10:13 AM 71.1 °F - 64.9 °F 81% 29.92 in 10.0 mi West 4.6 mph - N/A   Overcast
10:53 AM 72.0 °F - 64.9 °F 78% 29.89 in 10.0 mi West 3.5 mph - N/A   Overcast
11:00 AM 73.0 °F - 64.9 °F 76% 29.94 in 10.0 mi West 5.8 mph - N/A   Overcast
11:24 AM 73.9 °F - 66.0 °F 76% 29.94 in 10.0 mi West 6.9 mph - N/A   Overcast
11:33 AM 73.9 °F - 66.0 °F 76% 29.94 in 10.0 mi WNW 5.8 mph - N/A   Overcast
11:44 AM 75.9 °F - 66.0 °F 71% 29.94 in 10.0 mi WSW 8.1 mph - N/A   Mostly Cloudy
11:53 AM 77.0 °F - 66.0 °F 69% 29.90 in 10.0 mi West 6.9 mph - N/A   Scattered Clouds
12:24 PM 78.1 °F - 64.0 °F 62% 29.93 in 10.0 mi Variable 6.9 mph - N/A   Mostly Cloudy
12:38 PM 79.0 °F - 64.0 °F 60% 29.93 in 10.0 mi West 6.9 mph - N/A   Mostly Cloudy
12:53 PM 80.1 °F 81.5 °F 63.0 °F 56% 29.89 in 10.0 mi NW 11.5 mph - N/A   Scattered Clouds
1:53 PM 81.0 °F 81.7 °F 61.0 °F 50% 29.88 in 10.0 mi NW 10.4 mph - N/A   Partly Cloudy
2:53 PM 81.0 °F 81.1 °F 57.9 °F 45% 29.87 in 10.0 mi WNW 12.7 mph - N/A   Scattered Clouds
3:53 PM 82.0 °F 81.6 °F 55.9 °F 41% 29.86 in 10.0 mi WNW 13.8 mph - N/A   Clear
4:53 PM 82.0 °F 81.6 °F 55.9 °F 41% 29.85 in 10.0 mi WNW 13.8 mph - N/A   Partly Cloudy
5:53 PM 81.0 °F 80.8 °F 55.9 °F 42% 29.86 in 10.0 mi WNW 10.4 mph - N/A   Partly Cloudy
6:53 PM 79.0 °F - 55.9 °F 45% 29.87 in 10.0 mi West 10.4 mph - N/A   Partly Cloudy
7:53 PM 75.9 °F - 55.0 °F 48% 29.88 in 10.0 mi NNW 5.8 mph - N/A   Clear
8:53 PM 71.1 °F - 52.0 °F 51% 29.89 in 10.0 mi Calm Calm - N/A   Clear
9:53 PM 66.0 °F - 55.0 °F 68% 29.91 in 10.0 mi Calm Calm - N/A   Clear
10:53 PM 63.0 °F - 57.0 °F 81% 29.93 in 10.0 mi Calm Calm - N/A   Clear
11:53 PM 61.0 °F - 57.0 °F 87% 29.94 in 10.0 mi Calm Calm - N/A   Clear